Stevens Point, WI

3:47 PM CST on December 05, 2016 (GMT -0600)
Stevens Point Municipal

Weather History for KSTE - September, 2013

Change the Weather History Date:

Friday, September 13, 2013

  Actual Average Record
Temperature  
Mean Temperature 49 °F -  
Max Temperature 62 °F 70 °F 91 °F (1952)
Min Temperature 37 °F 51 °F 30 °F (1953)
Degree Days  
Heating Degree Days 16    
Moisture  
Dew Point 38 °F    
Average Humidity 70    
Maximum Humidity 99    
Minimum Humidity 40    
Precipitation  
Precipitation 0.00 in - - ()
Sea Level Pressure  
Sea Level Pressure 30.21 in    
Wind  
Wind Speed 3 mph (North)    
Max Wind Speed 10 mph    
Max Gust Speed 20 mph    
Visibility 10 miles    
Events      
Averages and records for this station are not official NWS values.
T = Trace of Precipitation, MM = Missing Value Source: NWS Daily Summary

Daily Weather History Graph

Daily Weather History Graph

Search for Another Location

Airport or City:

Trip Planner

Search our weather history database for the weather conditions in past years. The results will help you decide how hot, cold, wet, or windy it might be!

Date:

Astronomy

Sep. 13, 2013 Rise Set
Actual Time 6:35 AM CDT 7:12 PM CDT
Civil Twilight 6:05 AM CDT 7:41 PM CDT
Nautical Twilight 5:30 AM CDT 8:15 PM CDT
Astronomical Twilight 4:54 AM CDT 8:51 PM CDT
Moon 3:11 PM CDT (9/13) No Moon Set
Length of Visible Light 13h 35m
Length of Day
12h 37m
First Quarter, 61% of the Moon is Illuminated
Sep 13
First Quarter
Sep 19
Full
Sep 26
Last Quarter
Oct 4
New
Oct 11
First Quarter

Hourly Weather History & Observations

Time (CDT) Temp. Windchill Dew Point Humidity Pressure Visibility Wind Dir Wind Speed Gust Speed Precip Events Conditions
12:15 AM 46.6 °F - 40.6 °F 80% 30.20 in 10.0 mi North 5.8 mph - N/A   Clear
12:35 AM 46.0 °F 44.8 °F 40.8 °F 82% 30.20 in 10.0 mi North 3.5 mph - N/A   Clear
12:55 AM 45.1 °F 43.7 °F 40.6 °F 84% 30.21 in 10.0 mi North 3.5 mph - N/A   Clear
1:15 AM 44.6 °F 43.1 °F 40.6 °F 86% 30.21 in 10.0 mi North 3.5 mph - N/A   Clear
1:35 AM 43.9 °F - 40.5 °F 88% 30.21 in 10.0 mi Calm Calm - N/A   Clear
1:55 AM 42.6 °F 40.9 °F 39.9 °F 90% 30.21 in 10.0 mi North 3.5 mph - N/A   Clear
2:15 AM 41.7 °F - 39.7 °F 93% 30.21 in 10.0 mi Calm Calm - N/A   Clear
2:35 AM 41.0 °F - 39.4 °F 94% 30.21 in 10.0 mi Calm Calm - N/A   Clear
2:55 AM 40.6 °F - 39.0 °F 94% 30.21 in 10.0 mi Calm Calm - N/A   Clear
3:15 AM 40.1 °F - 38.8 °F 95% 30.21 in 10.0 mi Calm Calm - N/A   Clear
3:35 AM 40.1 °F 36.1 °F 38.8 °F 95% 30.21 in 10.0 mi NNW 5.8 mph - N/A   Clear
3:55 AM 41.2 °F 38.2 °F 39.6 °F 94% 30.21 in 10.0 mi NNW 4.6 mph - N/A   Clear
4:15 AM 40.8 °F 38.8 °F 39.2 °F 94% 30.22 in 10.0 mi NNW 3.5 mph - N/A   Clear
4:35 AM 40.5 °F 37.3 °F 39.2 °F 95% 30.22 in 10.0 mi NNW 4.6 mph - N/A   Clear
4:55 AM 40.1 °F 36.9 °F 39.2 °F 97% 30.23 in 10.0 mi NNW 4.6 mph - N/A   Clear
5:15 AM 40.1 °F 36.9 °F 39.0 °F 96% 30.23 in 10.0 mi North 4.6 mph - N/A   Clear
5:35 AM 38.5 °F - 37.8 °F 97% 30.23 in 10.0 mi Calm Calm - N/A   Clear
5:55 AM 38.8 °F - 38.1 °F 97% 30.23 in 10.0 mi Calm Calm - N/A   Clear
6:15 AM 38.7 °F - 38.3 °F 99% 30.25 in 10.0 mi Calm Calm - N/A   Clear
6:35 AM 38.1 °F - 37.4 °F 97% 30.25 in 10.0 mi Calm Calm - N/A   Clear
6:55 AM 37.0 °F - 36.5 °F 98% 30.25 in 10.0 mi Calm Calm - N/A   Clear
7:15 AM 37.4 °F - 36.7 °F 97% 30.26 in 10.0 mi Calm Calm - N/A   Clear
7:35 AM 40.8 °F - 39.7 °F 96% 30.26 in 10.0 mi Calm Calm - N/A   Clear
7:55 AM 42.6 °F 39.9 °F 40.5 °F 92% 30.26 in 10.0 mi North 4.6 mph - N/A   Clear
8:15 AM 43.9 °F 41.3 °F 40.6 °F 88% 30.26 in 10.0 mi North 4.6 mph - N/A   Clear
8:35 AM 45.5 °F 42.5 °F 41.0 °F 84% 30.26 in 10.0 mi North 5.8 mph - N/A   Clear
8:55 AM 46.2 °F 44.1 °F 39.9 °F 79% 30.25 in 10.0 mi North 4.6 mph - N/A   Clear
9:15 AM 47.7 °F - 39.4 °F 73% 30.27 in 10.0 mi NNE 9.2 mph - N/A   Clear
9:35 AM 48.4 °F - 38.5 °F 69% 30.27 in 10.0 mi ENE 5.8 mph - N/A   Clear
9:55 AM 50.2 °F - 37.6 °F 62% 30.27 in 10.0 mi NE 9.2 mph - N/A   Clear
10:15 AM 50.5 °F - 36.1 °F 58% 30.27 in 10.0 mi NNE 10.4 mph - N/A   Clear
10:35 AM 51.1 °F - 36.9 °F 58% 30.27 in 10.0 mi NE 5.8 mph - N/A   Clear
10:55 AM 52.7 °F - 35.2 °F 52% 30.27 in 10.0 mi NNE 6.9 mph - N/A   Clear
11:15 AM 53.8 °F - 34.7 °F 48% 30.27 in 10.0 mi North 4.6 mph - N/A   Clear
11:35 AM 54.5 °F - 33.8 °F 46% 30.26 in 10.0 mi NNE 4.6 mph - N/A   Clear
11:55 AM 55.4 °F - 34.3 °F 45% 30.26 in 10.0 mi North 5.8 mph - N/A   Clear
12:15 PM 55.9 °F - 34.5 °F 45% 30.25 in 10.0 mi NNE 4.6 mph - N/A   Clear
12:35 PM 56.7 °F - 35.1 °F 44% 30.25 in 10.0 mi North 3.5 mph - N/A   Clear
12:55 PM 57.2 °F - 35.1 °F 43% 30.24 in 10.0 mi East 4.6 mph - N/A   Clear
1:15 PM 59.0 °F - 36.0 °F 42% 30.23 in 10.0 mi ENE 9.2 mph - N/A   Clear
1:35 PM 58.3 °F - 35.6 °F 43% 30.22 in 10.0 mi North 8.1 mph - N/A   Clear
1:55 PM 58.8 °F - 35.8 °F 42% 30.22 in 10.0 mi WNW 4.6 mph - N/A   Clear
2:15 PM 59.4 °F - 36.1 °F 42% 30.21 in 10.0 mi North 6.9 mph - N/A   Clear
2:35 PM 59.7 °F - 35.6 °F 41% 30.20 in 10.0 mi ENE 3.5 mph 19.6 mph N/A   Clear
2:55 PM 60.6 °F - 36.7 °F 41% 30.20 in 10.0 mi North 9.2 mph - N/A   Scattered Clouds
3:15 PM 60.6 °F - 36.5 °F 41% 30.20 in 10.0 mi WNW 3.5 mph - N/A   Scattered Clouds
3:35 PM 61.7 °F - 36.9 °F 40% 30.19 in 10.0 mi NNW 3.5 mph - N/A   Clear
3:55 PM 61.3 °F - 37.6 °F 41% 30.18 in 10.0 mi NW 3.5 mph - N/A   Scattered Clouds
4:15 PM 61.3 °F - 36.9 °F 40% 30.18 in 10.0 mi NNW 6.9 mph - N/A   Clear
4:35 PM 61.3 °F - 37.2 °F 41% 30.18 in 10.0 mi Calm Calm - N/A   Clear
4:55 PM 61.2 °F - 37.4 °F 41% 30.18 in 10.0 mi North 6.9 mph - N/A   Clear
5:15 PM 61.5 °F - 36.7 °F 40% 30.18 in 10.0 mi WNW 3.5 mph - N/A   Clear
5:35 PM 61.2 °F - 37.0 °F 41% 30.17 in 10.0 mi West 3.5 mph - N/A   Clear
5:55 PM 61.3 °F - 38.3 °F 43% 30.17 in 10.0 mi WNW 3.5 mph - N/A   Clear
6:15 PM 60.8 °F - 37.4 °F 42% 30.17 in 10.0 mi Calm Calm - N/A   Clear
6:35 PM 59.9 °F - 39.4 °F 47% 30.17 in 10.0 mi WNW 3.5 mph - N/A   Clear
6:55 PM 59.4 °F - 39.2 °F 47% 30.16 in 10.0 mi Calm Calm - N/A   Clear
7:15 PM 57.2 °F - 41.4 °F 55% 30.16 in 10.0 mi Calm Calm - N/A   Clear
7:35 PM 51.4 °F - 40.8 °F 67% 30.16 in 10.0 mi Calm Calm - N/A   Clear
7:55 PM 51.8 °F - 42.8 °F 71% 30.16 in 10.0 mi Calm Calm - N/A   Clear
8:15 PM 50.4 °F - 42.6 °F 75% 30.16 in 10.0 mi Calm Calm - N/A   Clear
8:35 PM 49.1 °F - 42.1 °F 77% 30.16 in 10.0 mi Calm Calm - N/A   Clear
8:55 PM 47.1 °F - 42.3 °F 83% 30.16 in 10.0 mi Calm Calm - N/A   Clear
9:15 PM 45.9 °F - 40.1 °F 80% 30.16 in 10.0 mi Calm Calm - N/A   Clear
9:35 PM 45.0 °F - 41.0 °F 86% 30.16 in 10.0 mi Calm Calm - N/A   Clear
9:55 PM 44.1 °F - 40.1 °F 86% 30.16 in 10.0 mi Calm Calm - N/A   Clear
10:15 PM 43.7 °F - 41.5 °F 92% 30.16 in 10.0 mi Calm Calm - N/A   Clear
10:35 PM 45.3 °F - 39.9 °F 81% 30.15 in 10.0 mi Calm Calm - N/A   Clear
10:55 PM 45.5 °F - 40.1 °F 81% 30.16 in 10.0 mi Calm Calm - N/A   Clear
11:15 PM 42.4 °F - 38.8 °F 87% 30.15 in 10.0 mi Calm Calm - N/A   Clear
11:35 PM 41.5 °F - 38.7 °F 89% 30.15 in 10.0 mi Calm Calm - N/A   Clear
11:55 PM 42.8 °F - 39.0 °F 86% 30.15 in 10.0 mi Calm Calm - N/A   Clear